sat.trackr.live / text

‹ back to catalog

STARLINK-30772

NORAD 58135 · 2023-162T

PAYLOAD ACTIVE UNKNOWN

§ Identity

Operator
Country
US
Launch date
2023-10-22
Launch site
AFETR
Launch vehicle
Mass (kg)
RCS (m²)

Purposes: comms

External: N2YO · Heavens-Above · Gunter

§ Orbital elements

Epoch: 2026-09-20T07:35:39.947712Z

Period
94.27 min
Inclination
43.0030°
Eccentricity
0.0001888
Mean motion
15.27578285 rev/d
Perigee alt
481.8 km
Apogee alt
484.3 km
Semi-major
6,861.2 km
B*
2.5281e-5
RAAN
113.2550°
Arg perigee
251.4889°
Mean anomaly
108.5758°
Rev number
16,207

§ Raw data

STARLINK-307721 58135U 23162T   26263.31643458  .00000433  00000+0  25281-4 0  99902 58135  43.0030 113.2550 0001888 251.4889 108.5758 15.27578285162073

JSON: /api/v1/satellites/58135 · /tle

For live sub-satellite position, see the globe view (requires WebGL).

§ Visibility from observer

Set your observer location to see the next 7 days of passes ≥ 10°. The values pass through the URL so the page stays shareable.

No JS? Fill the form by hand. The geolocation button needs JavaScript.